Temperature
14 14 14 14 14 14 14 14 14 13 13 13 13 13 13 13 13 13 13 13 12 12 12 12 12 12 12 12 12 12 11 11 11 11 11 10 10 10 10 10 10 10 10
13 13 13 13 13 13 13 13 13 13 13 13 13 13 13 13 13 13 13 13 12 12 12 12 12 12 12 12 11 11 11 11 11 11 11 10 10 10 10 10 10 10 10
13 13 13 13 13 13 13 13 13 12 12 12 12 12 12 12 12 12 12 12 12 12 12 12 12 12 12 12 11 11 11 11 11 11 11 10 10 10 10 10 10 10 9
12 12 12 12 12 12 12 12 12 12 12 12 12 12 12 12 12 12 12 12 12 12 12 12 12 11 11 11 11 11 11 11 11 10 10 10 10 10 10 10 10 10 9
12 12 12 12 12 12 12 12 12 12 12 11 11 11 11 11 11 11 11 11 12 11 11 11 11 12 11 11 11 11 11 10 10 10 10 10 10 10 10 9 9 9 9
12 11 11 11 11 11 11 11 11 11 11 11 11 11 11 11 11 11 11 11 11 11 11 11 11 11 11 11 11 11 11 10 10 10 10 10 10 10 9 9 9 9 9
11 11 11 11 11 11 11 11 11 11 11 11 11 11 10 10 11 11 11 11 11 11 11 11 11 11 11 11 11 11 11 11 10 10 10 10 10 10 9 9 9 9 9
11 11 11 10 10 10 10 10 10 10 10 10 10 10 10 10 10 11 11 10 10 10 10 10 10 11 10 10 10 10 10 10 10 10 10 10 9 9 9 9 9 9 8
10 10 10 10 10 10 10 9 9 9 10 10 10 10 10 10 10 10 10 10 10 10 10 10 10 10 10 10 10 10 10 10 10 9 9 9 9 9 9 9 8 8 8
9 9 9 9 9 9 9 9 9 9 9 9 9 9 9 9 9 10 9 9 9 9 9 9 10 10 10 10 9 9 9 9 9 9 9 9 9 9 9 8 8 8 8
9 9 9 8 8 8 8 8 8 8 8 8 9 9 9 9 9 9 9 9 8 8 9 9 9 9 9 9 9 9 9 9 8 8 8 8 8 8 8 8 8 8 7
8 8 8 8 8 8 8 8 7 7 8 8 8 8 8 8 8 8 8 8 8 8 8 8 8 9 9 9 9 9 9 8 8 8 8 8 8 8 8 8 7 7 7
7 7 7 7 7 7 7 7 7 7 7 7 7 7 7 7 7 8 8 8 8 7 7 7 8 8 8 8 8 8 8 8 8 8 8 8 7 7 7 7 7 7 7
6 6 6 6 6 6 6 6 6 6 6 6 6 6 6 6 6 7 7 7 7 7 7 7 7 7 7 7 7 7 7 7 7 7 7 7 7 7 7 7 7 6 6
5 5 5 5 5 5 5 5 5 5 5 6 6 6 6 6 6 6 6 6 6 6 6 6 6 6 6 6 7 6 6 6 6 6 7 7 6 6 6 6 6 6 6
5 5 5 5 5 5 5 5 5 5 5 5 5 5 5 5 6 6 6 6 6 6 6 5 6 6 6 6 6 6 6 6 6 6 6 6 6 6 6 6 6 5 5
4 4 4 4 4 4 4 4 4 4 4 5 5 5 5 5 5 5 5 5 5 5 5 5 5 5 5 5 6 6 6 6 5 5 5 5 5 5 5 5 5 5 5
4 4 4 4 4 4 4 4 3 3 4 4 4 4 4 4 5 5 5 5 4 4 4 4 4 5 5 5 5 5 5 5 5 5 5 5 5 5 5 5 5 5 5
4 3 3 3 3 3 3 3 3 3 3 3 3 3 4 4 4 4 4 4 4 4 4 4 4 4 4 4 4 5 5 5 5 5 5 5 5 5 5 5 4 4 4
3 3 3 3 3 3 3 2 2 2 2 2 2 3 3 3 3 3 3 3 3 3 3 3 3 3 3 4 4 4 4 4 4 4 4 4 4 4 4 4 4 4 4
3 3 3 2 2 2 2 2 2 2 2 2 2 2 2 2 2 2 2 2 3 3 3 3 3 3 3 3 3 3 3 4 4 4 4 4 4 4 4 4 4 4 4
2 2 2 2 2 1 1 1 1 1 1 1 1 2 2 2 2 2 2 2 2 2 2 2 2 3 3 3 3 3 3 3 3 3 3 3 3 3 3 3 3 3 3
2 1 1 1 1 1 1 1 1 1 1 1 1 1 1 1 1 1 1 1 2 2 2 2 2 2 2 2 2 2 3 3 3 3 3 3 3 3 3 3 3 3 3
1 1 1 1 0 0 0 0 0 0 0 0 0 1 1 1 1 1 1 1 1 1 1 2 2 2 2 2 2 2 2 2 2 2 2 2 2 2 2 2 2 2 2
1 1 0 0 0 0 -0 -0 -0 -0 -0 -0 -0 0 0 0 0 1 1 1 1 1 1 1 1 1 1 1 2 2 2 2 2 2 2 2 2 2 2 2 2 2 2
0 0 0 -0 -0 -0 -0 -0 -1 -1 -1 -1 -1 -0 -0 -0 -0 -0 0 0 0 0 0 1 1 1 1 1 1 2 2 2 2 2 2 1 1 1 1 1 1 1 1
Wind_Speed
3 3 3 3 3 3 3 3 3 3 3 3 3 3 3 3 2 2 2 3 3 3 3 4 4 4 3 3 3 4 3 3 3 3 2 2 3 3 2 3 3 2 1
3 3 3 3 3 3 3 3 3 3 3 3 3 3 3 3 3 3 3 3 3 4 4 4 4 3 5 4 4 4 4 4 4 4 3 3 3 3 3 2 2 2 1
2 3 3 2 2 3 3 3 3 3 3 3 3 4 4 4 4 4 4 4 4 4 4 4 4 4 5 4 5 5 4 4 4 4 3 2 2 2 2 3 3 2 2
2 3 3 3 3 3 3 3 3 3 3 3 4 4 4 4 4 4 4 5 4 4 4 4 4 4 5 5 5 5 4 4 4 4 3 3 3 2 3 2 2 2 2
2 3 3 3 2 2 2 2 3 3 3 3 3 3 3 3 3 3 4 4 4 4 4 4 4 3 4 4 3 4 4 4 4 4 4 3 3 2 3 3 3 2 2
3 3 2 2 2 2 2 1 2 2 3 3 3 3 3 2 1 2 4 5 4 4 5 4 4 4 4 4 4 4 4 5 5 4 4 4 4 4 3 3 3 3 2
3 3 2 2 1 1 1 2 2 2 3 3 3 3 3 2 1 2 4 5 5 5 4 4 3 3 4 5 5 5 5 5 6 6 6 5 5 4 4 5 4 4 3
2 2 2 2 2 2 2 2 3 3 3 3 3 3 4 3 1 3 4 6 5 5 5 5 5 4 4 4 5 5 5 4 5 6 5 5 4 4 4 5 4 3 2
1 2 2 3 2 2 2 3 3 3 3 4 3 4 4 4 1 2 4 4 5 5 5 5 5 5 2 2 5 5 4 3 2 2 2 1 1 1 2 3 4 4 3
1 2 2 3 3 3 3 3 3 3 3 3 3 4 4 4 1 2 4 4 4 4 4 4 3 4 2 3 5 5 5 4 3 3 3 3 3 4 5 5 5 5 4
2 2 2 2 2 2 3 3 3 3 3 4 4 4 4 4 2 2 3 3 4 4 4 4 3 1 3 5 6 5 4 4 4 4 3 3 3 3 3 4 4 4 5
2 1 1 2 2 1 2 2 3 3 3 4 4 4 3 3 3 2 3 4 5 5 4 4 2 0 3 5 5 3 2 3 3 3 4 3 3 3 3 3 3 3 4
2 2 2 2 1 2 2 2 2 3 3 3 3 3 3 3 2 2 3 4 5 5 4 4 3 2 4 4 3 3 3 3 3 4 4 4 3 3 2 2 3 2 3
2 2 2 2 2 2 1 2 2 2 3 3 3 4 4 3 3 2 2 3 4 4 4 3 2 3 4 3 2 3 3 3 3 3 3 3 3 3 3 3 3 3 2
2 2 2 2 2 2 2 2 2 2 2 4 4 4 4 4 4 5 4 4 3 4 4 3 3 3 3 3 3 3 2 2 2 3 3 2 2 3 3 3 3 3 4
2 2 2 2 2 2 2 2 1 1 2 3 4 5 4 5 5 5 5 5 4 3 3 4 4 4 4 4 4 3 3 3 3 3 3 2 2 2 3 3 3 4 4
2 2 2 2 2 2 2 2 3 2 1 1 3 4 5 6 6 6 5 5 4 4 4 4 5 4 4 4 4 4 4 4 3 3 3 3 3 3 3 3 3 3 4
2 2 2 2 2 2 2 3 3 3 3 3 3 3 4 5 6 5 5 4 3 3 4 4 4 4 4 4 4 4 3 3 3 3 3 3 3 3 3 4 4 4 4
2 2 1 2 2 2 3 3 3 3 3 4 4 3 4 4 4 4 3 3 3 4 4 4 4 4 4 4 4 3 3 3 3 3 3 4 4 4 4 4 4 5 5
1 2 2 2 2 2 2 3 3 3 4 4 4 5 5 4 4 3 3 3 4 4 4 4 4 4 4 3 3 3 3 3 4 4 4 4 4 4 5 5 5 5 5
1 1 2 2 2 2 3 3 3 3 4 4 4 5 5 4 4 4 4 4 4 4 4 3 4 4 4 3 3 3 4 4 4 4 4 4 4 4 5 5 5 5 5
2 1 2 2 2 2 3 3 3 4 4 4 4 4 4 4 4 4 4 4 4 4 4 4 4 4 4 4 4 4 4 4 4 4 4 4 4 4 4 5 5 5 5
2 2 2 2 2 2 3 3 3 4 4 4 4 4 4 4 4 4 4 4 4 4 4 4 4 4 4 4 4 4 5 5 5 5 5 4 4 4 4 5 6 6 6
2 2 2 2 3 3 3 3 3 4 4 4 4 4 4 4 4 5 5 4 4 4 5 4 5 6 6 5 5 5 6 6 5 5 6 6 5 5 5 5 6 6 6
2 2 2 2 3 3 3 4 4 4 4 5 5 5 5 5 5 5 5 5 5 5 6 5 5 6 7 7 6 6 6 6 6 6 5 5 6 6 6 6 6 6 6
2 2 3 3 3 3 3 4 4 4 4 5 5 5 5 5 5 5 5 5 5 6 6 5 6 7 7 7 7 7 6 6 6 6 5 5 5 5 6 5 6 6 6
Wind_Direction
182 184 182 185 195 198 206 208 217 212 214 221 230 226 221 220 228 230 244 244 243 237 234 239 239 244 235 230 231 231 239 249 251 263 253 232 226 243 237 239 235 225 182
190 192 197 188 190 195 207 216 221 222 220 224 229 236 233 229 228 230 238 244 246 251 252 248 245 238 241 238 231 230 233 241 245 256 252 240 242 246 240 239 234 232 238
188 192 202 209 207 211 215 222 226 226 225 225 227 236 239 239 235 234 239 246 248 254 256 256 255 246 242 237 233 235 233 235 238 242 250 243 240 239 236 237 232 231 240
191 199 205 222 228 230 224 222 224 227 227 232 235 235 240 244 242 240 245 249 253 254 252 255 260 257 253 248 238 237 234 232 231 234 237 232 228 233 231 230 233 226 239
196 210 220 229 228 224 226 224 226 233 233 235 241 241 245 249 258 262 257 261 264 261 256 252 253 263 288 272 256 243 236 238 232 231 235 235 223 217 231 239 239 240 251
205 214 222 226 220 219 224 233 229 235 238 235 239 248 254 254 298 285 275 266 270 268 264 258 245 232 238 245 265 266 254 242 239 236 239 237 234 228 228 236 234 237 248
214 215 215 221 219 235 245 249 252 244 238 241 242 248 258 269 287 261 260 267 266 269 266 261 254 252 240 238 226 225 238 255 251 249 248 246 244 233 228 231 234 243 254
221 223 217 221 226 235 248 261 267 261 250 246 247 251 259 264 264 261 255 254 262 263 263 260 255 255 246 249 242 232 231 226 229 237 248 251 246 240 237 241 244 239 247
235 236 235 234 232 239 251 269 279 280 269 258 249 251 258 265 263 267 269 260 259 262 262 260 259 257 240 247 246 241 237 232 205 227 298 306 343 235 230 225 220 221 241
309 276 252 244 240 244 252 264 272 275 275 270 263 259 260 269 266 255 267 264 263 264 266 263 253 263 249 223 240 239 242 242 221 206 206 200 211 201 209 224 228 232 241
328 313 284 265 258 258 260 261 263 269 277 271 269 264 261 268 260 226 260 264 271 272 272 271 268 218 247 237 253 248 249 259 240 224 222 215 214 213 213 225 234 241 242
343 336 315 306 299 284 269 266 261 260 269 272 269 269 266 263 268 245 236 258 286 276 278 281 283 206 256 247 249 260 250 258 242 223 220 219 218 220 222 222 232 247 253
349 341 326 323 327 317 299 277 267 265 269 276 277 277 279 278 267 244 247 256 270 273 283 310 313 263 262 252 232 217 220 235 228 223 222 225 226 222 220 224 227 238 262
351 337 330 323 322 317 313 297 288 285 284 285 283 283 286 285 286 282 270 262 250 259 274 279 258 234 247 258 233 222 237 242 234 235 238 230 220 210 213 214 222 219 240
343 335 332 328 316 316 323 324 310 311 317 303 295 291 290 287 308 328 307 291 290 287 290 284 272 261 248 246 243 239 239 242 244 247 236 229 219 224 225 220 224 227 240
321 325 327 320 317 322 325 330 26 297 350 344 338 325 312 318 326 312 303 297 290 282 270 265 266 257 244 246 245 241 239 239 237 239 239 237 237 240 237 228 227 234 242
304 312 311 309 311 313 317 319 323 330 319 328 341 338 327 330 330 317 306 303 282 253 256 265 267 261 259 258 252 245 245 245 239 231 231 236 239 239 242 243 238 238 244
310 316 314 302 302 300 304 304 307 313 316 320 320 324 326 325 326 321 308 295 283 258 265 270 274 273 268 267 259 249 249 246 238 234 234 236 235 238 240 242 244 248 251
318 313 310 311 308 302 301 299 299 301 302 308 315 325 331 312 300 306 297 284 281 278 275 278 282 282 279 276 272 265 257 252 251 245 241 241 238 236 240 245 248 246 249
316 336 322 306 298 296 297 299 299 299 302 308 313 320 325 316 312 311 300 290 283 281 282 286 289 290 286 283 284 284 274 266 263 258 251 247 245 242 243 245 245 245 247
302 312 318 299 294 297 297 297 297 299 302 305 307 322 326 306 304 308 310 308 302 299 295 295 297 297 291 286 280 277 279 278 274 270 264 258 252 248 249 249 248 249 253
284 285 282 287 292 294 297 295 296 297 298 299 306 313 318 304 307 307 306 306 304 301 300 298 294 291 287 284 278 273 276 280 278 274 270 268 265 259 255 253 254 255 254
284 283 284 284 282 290 290 292 293 294 298 301 306 311 311 308 304 301 302 305 304 302 303 299 291 291 293 292 286 275 270 268 269 270 268 266 264 262 256 253 253 256 253
288 287 288 288 284 283 287 293 295 299 301 303 303 305 305 304 302 302 302 303 303 303 304 298 291 286 285 287 287 283 279 278 276 270 261 256 255 258 257 256 255 253 252
290 292 294 293 291 290 291 294 297 301 303 302 301 301 301 302 302 304 305 305 304 303 305 306 302 299 295 292 291 292 296 291 284 279 269 259 253 252 252 253 252 254 253
293 297 299 299 300 299 295 293 295 299 299 300 301 299 297 296 297 300 301 301 303 303 304 305 305 305 304 303 299 300 299 289 280 278 275 262 252 248 248 251 252 249 251
Height
1520 1521 1522 1522 1523 1524 1525 1526 1526 1527 1527 1527 1527 1528 1528 1528 1528 1528 1529 1529 1529 1530 1530 1530 1529 1529 1529 1529 1529 1529 1529 1530 1529 1529 1528 1527 1526 1525 1524 1524 1523 1522 1522
1518 1519 1520 1520 1521 1522 1523 1523 1524 1525 1525 1525 1525 1525 1526 1526 1526 1526 1526 1526 1527 1527 1527 1527 1527 1526 1526 1527 1526 1527 1527 1526 1527 1526 1525 1525 1524 1523 1523 1522 1521 1521 1520
1517 1517 1518 1519 1519 1519 1520 1521 1522 1522 1522 1522 1523 1523 1523 1523 1523 1523 1524 1524 1524 1524 1524 1524 1524 1523 1523 1523 1523 1524 1523 1523 1523 1523 1522 1521 1521 1521 1520 1519 1519 1519 1518
1515 1515 1516 1516 1517 1517 1518 1518 1519 1519 1520 1520 1520 1520 1520 1520 1520 1520 1521 1521 1521 1521 1520 1520 1520 1520 1520 1520 1520 1520 1520 1520 1520 1519 1519 1519 1518 1518 1518 1517 1517 1517 1516
1513 1513 1514 1514 1514 1515 1515 1515 1516 1517 1517 1517 1517 1517 1517 1517 1517 1517 1517 1517 1517 1517 1517 1517 1516 1516 1516 1516 1516 1516 1516 1516 1516 1516 1516 1516 1515 1515 1515 1515 1515 1515 1514
1510 1511 1511 1512 1512 1512 1512 1512 1513 1513 1513 1514 1514 1514 1514 1514 1514 1514 1514 1514 1514 1514 1513 1513 1513 1512 1512 1512 1512 1512 1513 1513 1513 1513 1513 1513 1512 1513 1512 1513 1513 1512 1512
1508 1509 1509 1509 1509 1510 1510 1510 1509 1510 1510 1510 1510 1511 1511 1511 1510 1510 1510 1511 1510 1510 1510 1510 1509 1509 1508 1509 1509 1508 1508 1508 1509 1509 1509 1509 1509 1509 1509 1510 1510 1510 1510
1506 1506 1507 1507 1507 1507 1507 1507 1507 1507 1507 1507 1507 1507 1507 1507 1507 1507 1507 1507 1507 1507 1507 1506 1506 1505 1505 1505 1505 1505 1505 1505 1505 1505 1506 1506 1506 1506 1506 1507 1507 1507 1506
1503 1504 1504 1504 1504 1504 1504 1504 1504 1504 1503 1503 1504 1504 1504 1504 1503 1503 1503 1503 1503 1503 1502 1502 1502 1502 1501 1501 1501 1501 1501 1501 1501 1501 1501 1501 1501 1502 1502 1503 1503 1504 1503
1501 1501 1502 1502 1502 1502 1502 1502 1501 1501 1500 1500 1500 1500 1500 1500 1500 1500 1500 1499 1499 1498 1498 1498 1497 1497 1497 1497 1497 1497 1497 1497 1497 1497 1497 1497 1498 1498 1498 1499 1500 1500 1500
1499 1499 1499 1499 1500 1499 1499 1499 1499 1498 1498 1497 1497 1497 1497 1497 1497 1496 1496 1496 1495 1495 1494 1494 1493 1493 1493 1493 1493 1493 1493 1493 1493 1493 1493 1493 1494 1494 1494 1495 1496 1496 1497
1496 1496 1496 1497 1497 1497 1496 1496 1496 1496 1495 1494 1494 1494 1494 1493 1493 1492 1492 1492 1492 1491 1491 1490 1490 1489 1488 1488 1488 1489 1489 1489 1489 1489 1489 1489 1490 1490 1490 1491 1491 1492 1492
1494 1494 1494 1494 1494 1494 1493 1493 1493 1492 1492 1491 1491 1490 1490 1490 1489 1488 1488 1488 1488 1488 1487 1486 1485 1485 1484 1484 1484 1485 1485 1485 1485 1485 1485 1485 1486 1486 1487 1487 1487 1487 1488
1492 1492 1492 1492 1491 1491 1491 1490 1490 1489 1489 1489 1488 1487 1487 1486 1486 1485 1485 1484 1484 1484 1483 1482 1482 1481 1480 1480 1481 1481 1481 1481 1481 1481 1481 1482 1482 1482 1483 1483 1483 1483 1483
1490 1490 1490 1490 1489 1488 1488 1488 1487 1486 1486 1485 1485 1484 1484 1483 1483 1482 1481 1481 1480 1480 1479 1478 1478 1477 1477 1477 1477 1477 1477 1477 1477 1477 1478 1478 1478 1479 1479 1479 1479 1480 1480
1488 1488 1487 1487 1487 1486 1486 1485 1484 1483 1482 1481 1481 1480 1479 1479 1479 1478 1477 1477 1476 1476 1475 1474 1474 1473 1473 1473 1473 1472 1473 1473 1473 1474 1474 1474 1474 1475 1475 1475 1476 1476 1476
1486 1486 1485 1485 1484 1483 1483 1482 1481 1480 1479 1478 1477 1477 1476 1475 1475 1474 1473 1473 1472 1472 1471 1471 1470 1470 1470 1469 1469 1469 1469 1470 1470 1470 1470 1470 1471 1471 1471 1471 1472 1472 1472
1484 1483 1483 1482 1482 1481 1481 1480 1479 1477 1476 1475 1475 1473 1472 1471 1470 1470 1470 1469 1468 1468 1468 1467 1467 1466 1466 1465 1465 1465 1465 1466 1466 1466 1466 1467 1467 1467 1468 1468 1468 1468 1468
1482 1481 1481 1480 1480 1479 1479 1478 1477 1475 1474 1473 1471 1470 1469 1468 1467 1466 1466 1465 1464 1464 1464 1464 1463 1463 1462 1462 1461 1461 1461 1461 1462 1462 1462 1463 1463 1463 1463 1464 1464 1464 1464
1480 1479 1479 1478 1477 1477 1476 1475 1474 1473 1472 1470 1469 1467 1466 1465 1464 1463 1462 1461 1461 1461 1460 1460 1460 1459 1459 1458 1458 1457 1457 1457 1458 1458 1458 1458 1459 1459 1459 1460 1459 1459 1459
1478 1477 1476 1476 1475 1474 1473 1472 1471 1470 1469 1468 1466 1465 1464 1462 1461 1460 1459 1458 1457 1457 1456 1456 1456 1455 1455 1455 1454 1454 1454 1453 1453 1454 1454 1454 1454 1454 1455 1455 1455 1455 1455
1476 1475 1474 1473 1472 1471 1470 1469 1469 1467 1466 1465 1464 1462 1461 1460 1458 1457 1456 1455 1454 1453 1453 1452 1452 1451 1451 1450 1450 1450 1449 1449 1449 1449 1449 1449 1449 1450 1450 1450 1450 1450 1450
1473 1472 1471 1470 1469 1468 1467 1467 1466 1465 1464 1462 1461 1460 1459 1457 1456 1455 1453 1452 1451 1450 1449 1449 1448 1447 1447 1446 1446 1446 1445 1444 1444 1444 1444 1444 1444 1444 1445 1445 1445 1445 1445
1471 1470 1468 1467 1466 1465 1464 1464 1463 1462 1461 1459 1458 1457 1456 1454 1453 1452 1451 1449 1448 1447 1446 1445 1444 1444 1443 1442 1441 1441 1441 1440 1440 1439 1439 1439 1439 1439 1439 1440 1440 1440 1441
1468 1467 1466 1464 1463 1462 1461 1460 1459 1458 1457 1456 1455 1454 1452 1451 1450 1449 1447 1446 1445 1443 1442 1441 1440 1440 1439 1438 1437 1437 1436 1435 1435 1434 1434 1433 1433 1434 1434 1434 1434 1435 1435
1465 1464 1463 1462 1460 1459 1458 1457 1456 1455 1454 1453 1451 1450 1449 1448 1446 1445 1444 1443 1441 1440 1439 1437 1436 1435 1434 1434 1433 1432 1431 1430 1430 1429 1428 1428 1428 1428 1429 1429 1429 1430 1430